Flag for Colombia Weather past 2 weeks in Cartagena, Colombia

Now
91 °F

Scattered clouds.


Feels Like: 105 °F
Forecast: 80 / 90 °F
Wind: 5 mph from Northeast

Location: Cartagena / Rafael Nunez

Current Time: Aug 2, 2015 at 10:28:54 AM

Latest Report: Aug 2, 2015 at 10:00 AM


Visibility: N/A

Pressure: 29.78 "Hg

Humidity: 63%

Dew point: 77 °F

Location of CartagenaLocation

Historic Weather in Cartagena — Graph

°F

Cartagena temperature yesterday

Maximum temperature yesterday: 91 °F (at 11:00 AM)
Minimum temperature yesterday: 79 °F (at 1:00 AM)
Average temperature yesterday: 85 °F

Past Weeks' High & Low Weather Summary

 TemperatureHumidityPressure
High93 °F (Jul 27, 11:00 AM)100% (Jul 19, 5:00 AM)29.92 "Hg (Jul 19, 5:00 AM)
Low36 °F (Jul 19, 5:00 AM)59% (Jul 26, 4:00 PM)26.83 "Hg (Aug 1, 10:00 AM)
Average84 °F83%29.80 "Hg
* Reported Jul 18 9:00 AM — Aug 2 9:00 AM, Cartagena, Weather by CustomWeather, © 2015

Note: Actual official high and low records may vary slightly from our data, if they occured in-between our weather recording intervals... More about our weather records

Advertising

Cartagena weather history for previous 24 hours

 ConditionsComfort  
Time TempWeatherWind HumidityBarometerVisibility
9:00 AM
Sun, Aug 2
88 °FSunny.5 mph75%29.78 "Hg10 mi
8:00 AM84 °FClear.3 mph84%29.77 "Hg4 mi
7:00 AM81 °FScattered clouds.6 mph94%29.76 "Hg4 mi
6:00 AM79 °FScattered clouds.5 mph100%29.73 "HgN/A
5:00 AM81 °FPassing clouds.N/A89%29.71 "HgN/A
4:00 AM81 °FWarm.5 mph89%29.72 "HgN/A
3:00 AM81 °FWarm.5 mph84%29.73 "HgN/A
1:00 AM81 °FClear.7 mph89%29.76 "Hg10 mi
12:00 AM82 °FClear.9 mph79%29.78 "Hg10 mi
11:00 PM
Sat, Aug 1
82 °FClear.7 mph79%29.79 "Hg10 mi
10:00 PM82 °FClear.9 mph84%29.79 "Hg10 mi
9:00 PM82 °FClear.9 mph84%29.77 "Hg10 mi
8:00 PM84 °FClear.12 mph84%29.76 "Hg10 mi
7:00 PM84 °FClear.9 mph84%29.74 "Hg10 mi
6:00 PM86 °FPartly sunny.9 mph79%29.75 "HgN/A
5:00 PM86 °FPartly sunny.15 mph75%29.71 "HgN/A
4:00 PM88 °FPartly sunny.15 mph75%29.74 "HgN/A
3:00 PM90 °FPartly sunny.12 mph71%29.76 "HgN/A
2:00 PM91 °FScattered clouds.13 mph67%29.77 "Hg6 mi
1:00 PM90 °FScattered clouds.12 mph75%29.79 "HgN/A
12:00 PM90 °FScattered clouds.8 mph75%29.80 "HgN/A
11:00 AM91 °FPassing clouds.7 mph71%29.82 "HgN/A
10:00 AM90 °FPassing clouds.12 mph71%26.83 "HgN/A
Weather by CustomWeather, © 2015

See weather overviewHow to use our weather pages